EHI
0 0 0 0 0 0 0 0 0 0 0 0 0 0 1 3 5 8 12 15 15 13 13 15 16 14 11 10 10 11 12 13 12 9 6 3 2 1 0 0 0 0 0 0
0 0 0 0 0 0 0 0 0 0 0 0 0 0 0 2 4 7 10 12 13 13 14 15 16 14 11 10 10 11 13 13 12 9 5 2 1 0 0 0 0 0 0 0
0 0 0 0 0 0 0 0 0 0 0 0 0 0 0 1 3 5 7 9 12 13 15 16 15 13 12 11 10 11 13 13 11 8 4 2 0 0 0 0 0 0 0 0
0 0 0 0 0 1 1 0 0 1 1 0 0 0 0 1 2 3 5 8 12 14 15 15 14 12 13 12 11 11 11 11 9 6 3 2 1 0 0 0 0 0 0 0
0 0 0 0 0 1 1 0 1 2 1 0 0 0 0 1 2 2 3 7 11 13 13 14 12 11 12 12 10 9 9 7 5 4 2 1 1 0 0 1 1 0 0 0
0 0 0 0 0 1 1 0 1 1 1 0 0 0 0 1 3 4 4 5 9 11 11 11 11 10 10 9 8 7 5 3 2 2 2 1 1 0 0 1 1 0 0 0
0 0 0 0 0 0 0 0 0 0 0 0 0 0 0 1 3 6 8 8 10 11 10 9 9 10 9 7 5 4 2 1 0 1 2 1 0 0 0 1 1 0 0 0
0 0 0 0 0 0 0 0 0 0 0 1 1 1 1 1 3 6 10 12 13 13 11 9 9 9 8 6 4 3 2 1 0 0 1 1 0 0 1 1 1 1 1 1
0 0 0 0 0 0 0 0 0 1 2 3 3 3 2 2 2 5 10 13 14 14 13 11 9 9 9 7 5 5 5 3 2 0 0 0 1 2 3 3 3 3 2 2
0 0 1 1 1 0 0 1 2 2 4 5 5 4 3 3 3 6 9 11 13 14 14 12 10 9 9 8 8 7 8 7 5 2 1 1 1 3 4 4 5 5 3 2
0 0 1 2 1 0 0 2 3 4 5 5 4 3 3 3 4 5 7 8 9 11 12 11 10 9 8 7 7 7 9 9 7 5 4 2 2 3 2 2 3 4 3 2
0 0 1 1 0 0 1 1 3 4 4 4 3 3 2 3 3 3 4 5 6 8 8 9 9 9 7 6 5 6 7 8 8 7 7 5 4 3 2 1 1 1 1 1
0 0 0 0 0 0 1 1 1 2 3 2 2 1 1 1 1 1 2 4 6 7 7 8 9 8 6 4 3 4 4 5 6 6 6 5 5 5 3 1 0 0 0 0
0 0 0 0 0 0 0 0 0 1 1 1 1 0 0 0 0 0 2 5 7 7 7 8 8 6 3 2 3 3 3 4 4 4 4 4 4 5 5 2 0 0 0 0
0 0 0 0 0 0 0 0 0 0 0 0 0 0 0 0 1 1 2 4 7 8 8 7 6 4 2 1 2 3 3 3 3 3 3 3 3 4 5 4 2 0 0 0
0 0 0 0 0 0 0 0 0 0 0 0 0 0 0 1 2 3 4 5 7 8 7 6 4 2 0 0 1 1 2 2 2 3 3 3 3 3 4 4 3 1 0 0
0 0 0 0 0 0 0 0 1 1 0 0 0 0 1 2 3 4 5 6 7 7 5 3 2 1 0 0 0 0 1 1 1 1 3 3 3 3 3 4 3 1 0 0
0 0 0 0 0 0 0 0 1 1 0 1 1 1 1 1 2 3 4 6 6 5 3 2 1 1 0 0 0 0 0 0 0 1 2 2 2 3 3 3 2 1 0 0
0 0 0 0 0 0 0 0 1 1 1 1 1 1 0 0 1 2 3 5 5 4 3 2 2 2 1 0 0 0 0 0 0 0 1 1 1 1 2 2 1 0 0 0
1 1 2 2 2 2 1 1 2 2 1 1 1 0 0 0 1 2 3 4 3 3 3 3 3 3 2 0 0 0 0 0 0 0 0 0 0 0 1 1 0 0 0 0
3 4 4 4 4 3 2 2 2 2 2 1 0 0 0 0 1 2 2 2 2 2 2 2 2 2 1 0 0 0 0 0 0 0 0 0 0 0 0 0 0 0 0 0
3 3 3 3 3 2 1 1 1 1 1 1 0 0 0 0 0 1 1 1 0 1 1 1 1 1 0 0 0 0 0 0 0 0 0 0 0 0 0 0 0 0 0 0
1 1 1 1 1 0 0 0 0 0 0 0 0 0 0 0 0 0 0 0 0 0 0 0 0 0 0 0 0 0 0 0 0 0 0 0 0 0 0 0 0 0 0 0
0 0 0 0 0 0 0 0 0 0 0 0 0 0 0 0 0 0 0 0 0 0 0 0 0 0 0 0 0 0 0 0 0 0 0 0 0 0 0 0 0 0 0 0
0 0 0 0 0 0 0 0 0 0 0 0 0 0 0 0 0 0 0 0 0 0 0 0 0 0 0 0 0 0 0 0 0 0 0 0 0 0 0 0 0 0 0 0
0 0 0 0 0 0 0 0 0 0 0 0 0 0 0 0 0 0 0 0 0 0 0 0 0 0 0 0 0 0 0 0 0 0 0 0 0 0 0 0 0 0 0 0
0 0 0 0 0 0 0 0 0 0 0 0 0 0 0 0 0 0 0 0 0 0 0 0 0 0 0 0 0 0 0 0 0 0 0 0 0 0 0 0 0 0 0 0
Wind_Speed
4 4 3 2 2 2 4 6 6 6 6 7 7 6 4 3 3 4 5 8 10 11 9 9 9 10 10 10 10 10 10 9 9 8 8 7 7 7 7 7 8 7 6 6
1 2 4 2 1 1 1 3 4 4 4 4 4 2 2 3 3 4 6 8 10 11 11 11 11 11 11 10 11 10 10 10 9 8 8 8 8 7 7 7 6 6 6 6
0 1 4 0 2 1 2 1 4 5 5 4 2 2 2 3 4 5 7 8 10 11 11 11 12 12 12 11 10 10 10 9 9 9 9 9 9 8 8 7 6 6 6 6
2 3 2 6 3 3 5 3 2 2 3 5 5 3 1 2 4 5 6 8 9 10 10 9 9 9 10 10 11 11 10 10 10 10 9 8 8 8 8 6 6 6 6 6
3 2 1 3 2 1 4 2 3 3 3 3 3 2 2 2 1 3 5 7 7 8 8 8 9 10 10 10 10 10 11 11 11 10 10 9 9 9 7 7 6 6 6 7
4 4 4 4 3 1 6 2 3 4 3 3 3 3 2 3 1 1 1 4 5 6 7 8 9 9 10 10 10 11 11 10 10 10 10 10 10 8 6 6 7 7 6 7
3 2 3 4 5 2 4 3 1 3 3 3 2 3 2 1 2 2 2 3 5 6 6 8 9 10 10 10 10 10 9 9 9 9 10 10 9 7 6 6 6 6 6 6
3 3 3 5 4 3 3 2 1 2 4 5 4 4 4 4 3 3 3 4 5 5 4 5 8 10 9 9 9 8 8 8 8 8 9 8 8 7 7 7 7 6 6 5
3 3 2 2 2 1 2 2 2 3 3 6 6 5 4 4 4 3 3 4 5 6 5 3 5 8 9 8 7 8 8 8 8 8 7 7 8 8 6 6 6 6 5 6
2 1 2 4 4 4 3 3 3 4 4 6 6 4 4 4 4 4 4 4 4 6 5 3 2 4 5 6 7 8 8 8 7 7 7 6 6 6 6 7 7 6 7 6
2 1 4 5 5 4 5 6 6 6 6 6 6 5 4 4 3 3 3 3 4 5 4 3 2 2 2 3 6 7 7 6 6 6 6 6 5 4 6 6 7 8 7 6
3 2 1 1 2 4 5 5 4 5 6 5 5 4 4 3 3 4 3 3 4 4 4 3 3 2 1 1 4 6 5 5 4 4 4 4 4 3 1 2 4 6 6 6
2 1 1 1 3 4 5 4 4 5 4 3 3 3 3 3 3 4 4 4 5 5 4 4 4 4 3 2 3 4 4 3 3 3 4 4 4 4 3 2 4 3 3 5
3 3 3 2 2 3 5 4 4 4 4 4 4 5 4 4 5 6 5 4 5 6 5 5 5 4 3 3 4 4 3 3 3 2 2 3 3 4 4 4 2 1 1 2
5 4 3 3 3 4 4 4 5 5 5 5 6 6 6 6 6 5 5 5 7 8 7 6 7 5 4 4 5 4 3 2 2 2 2 2 3 3 3 4 3 2 2 1
3 5 5 4 4 3 4 5 5 5 5 6 6 6 6 6 7 7 7 8 9 8 7 7 7 5 5 5 5 4 3 5 4 3 3 3 2 3 3 3 3 3 2 2
3 3 3 3 3 3 4 4 6 6 6 7 7 7 8 9 9 9 9 9 9 8 8 7 6 5 6 6 6 4 4 5 6 4 3 2 3 3 3 3 3 3 2 2
3 3 2 2 3 5 6 7 8 7 7 7 8 8 9 9 9 8 8 8 10 10 9 7 7 7 7 7 6 5 5 5 5 5 4 4 4 4 4 4 4 4 3 4
5 4 3 4 6 7 7 7 7 7 8 8 9 9 9 8 8 8 8 10 10 9 7 8 10 9 8 8 8 5 6 7 6 6 5 6 6 5 5 5 5 4 4 4
5 5 6 7 8 9 9 8 8 9 8 9 10 10 10 9 8 9 10 10 7 4 5 7 8 8 7 8 10 6 7 7 7 6 6 6 5 5 5 5 5 4 4 3
6 6 8 10 10 10 9 9 9 10 9 9 10 10 9 8 8 8 9 8 7 7 8 10 8 7 7 8 10 7 8 8 8 7 7 6 6 6 6 6 5 5 4 4
7 9 11 11 11 11 9 9 10 11 10 10 11 10 10 9 9 9 9 6 6 8 7 7 7 10 11 10 8 8 8 8 7 7 6 6 6 6 6 5 5 5 5 5
9 10 11 11 11 11 11 10 10 10 11 10 9 9 9 7 6 7 7 5 5 9 8 8 11 14 13 9 7 8 8 8 7 7 6 6 6 6 6 6 6 5 5 5
9 10 10 10 11 12 12 10 9 9 10 10 9 9 8 7 6 6 5 7 10 10 8 9 13 14 12 8 8 8 7 7 7 7 6 6 6 6 6 6 6 5 5 6
11 11 11 11 11 9 9 9 10 10 10 8 9 9 7 6 5 5 5 7 10 10 8 10 14 13 9 7 8 7 7 7 7 7 7 6 6 6 6 6 6 5 5 5
10 9 8 9 8 7 7 7 7 7 7 7 6 6 5 5 6 5 6 7 9 9 7 6 7 8 7 7 7 7 7 7 8 7 7 7 7 6 6 6 7 5 5 5
10 9 8 8 7 7 7 7 7 7 6 6 6 5 5 5 6 6 7 6 6 6 6 6 6 6 6 7 7 7 7 6 6 6 6 6 5 5 5 6 5 4 4 5
Wind_Direction
168 173 140 126 146 159 157 173 176 207 198 208 217 217 204 174 152 160 173 173 176 173 170 166 166 169 172 174 173 169 168 172 175 173 169 165 166 168 167 169 176 175 172 176
92 131 114 88 30 144 167 177 176 170 221 216 185 163 152 149 160 181 189 187 184 174 171 173 174 175 175 174 173 168 171 175 171 167 168 170 171 170 170 174 175 173 174 175
136 62 78 5 251 168 115 69 161 186 210 160 131 141 164 167 166 191 190 184 182 180 179 181 180 176 175 173 167 168 171 173 171 171 172 176 178 174 177 178 175 178 182 179
116 76 168 238 246 134 113 54 52 111 139 147 151 167 145 188 181 188 187 184 184 183 184 182 176 170 168 166 167 170 173 174 174 173 175 175 176 181 183 178 179 182 185 188
107 127 261 301 339 107 116 42 33 106 127 142 136 75 360 309 231 203 186 184 184 182 178 173 170 167 162 167 169 172 177 179 179 176 175 177 184 187 184 180 184 186 184 186
117 136 208 251 290 226 97 51 15 81 91 95 88 88 289 305 308 141 168 168 168 167 166 171 172 163 164 169 172 179 181 180 178 177 177 182 187 186 181 179 186 185 189 192
122 154 246 287 308 45 113 208 306 87 96 89 102 168 223 319 21 71 89 113 140 147 164 174 166 162 168 172 181 184 176 172 174 179 181 182 182 181 177 179 179 187 194 200
127 152 246 318 19 75 184 193 99 90 95 96 89 72 52 48 48 39 71 92 113 127 146 159 159 161 170 183 185 171 166 171 176 180 185 184 179 181 179 180 186 194 197 207
166 182 227 6 82 103 112 107 90 92 97 102 92 79 65 51 45 43 62 89 99 112 117 135 160 165 175 188 170 163 168 176 180 182 186 178 179 181 180 184 191 199 200 210
80 50 41 44 41 37 54 85 83 99 97 87 86 78 68 57 41 43 49 70 84 100 105 112 143 165 177 176 166 163 172 180 182 182 185 181 183 184 187 193 199 203 206 210
63 10 28 30 28 42 50 53 59 66 71 79 83 68 64 62 52 49 48 64 93 106 106 104 105 108 128 156 159 165 172 177 180 182 182 182 179 185 194 203 204 200 205 199
200 222 151 291 11 60 63 50 52 72 63 53 72 78 68 60 55 50 46 66 85 91 95 98 94 84 89 140 152 156 165 172 176 176 175 170 165 163 133 162 185 191 196 187
176 167 131 118 45 58 66 58 58 70 74 66 59 79 83 73 62 57 52 68 86 88 85 88 86 72 49 72 124 141 152 161 159 163 165 166 166 165 157 77 68 100 165 178
96 96 81 67 75 75 82 73 72 70 65 78 75 67 71 69 66 62 54 65 80 85 80 77 75 61 45 70 88 100 113 123 125 140 150 156 162 162 159 155 145 85 49 152
47 74 102 93 80 76 86 86 78 67 65 68 69 67 69 73 71 67 65 73 77 74 68 65 63 48 40 66 82 89 96 108 118 125 133 140 141 142 145 147 146 139 106 84
62 66 74 86 85 75 81 83 84 79 77 76 69 66 65 72 79 74 72 71 74 70 64 62 56 41 45 62 70 70 68 74 88 95 101 112 123 130 136 137 137 140 137 140
105 87 84 84 82 82 83 90 94 90 83 80 77 74 71 69 69 68 67 67 68 63 59 59 52 46 50 56 63 63 61 63 67 75 82 100 109 116 121 122 121 122 128 131
113 109 119 124 111 94 90 94 92 89 87 84 83 77 70 70 71 68 66 66 65 56 45 42 49 54 50 51 54 56 59 59 63 69 67 70 79 86 94 99 101 102 95 95
90 89 86 95 105 103 99 94 90 87 86 87 85 79 74 72 70 68 67 65 61 53 31 32 47 53 50 49 53 58 62 63 63 63 67 71 73 73 77 81 81 81 81 81
95 87 88 94 96 98 98 95 92 86 84 89 89 82 74 68 67 69 68 63 50 43 40 43 49 49 45 47 51 59 63 64 63 60 59 62 67 69 70 72 74 75 74 80
97 91 92 93 92 90 91 92 92 88 82 83 86 85 81 72 65 66 69 62 33 36 52 53 52 47 48 52 52 57 60 62 61 58 58 60 64 69 69 66 63 62 63 65
97 95 95 94 93 87 82 83 86 86 83 80 79 80 80 75 70 66 59 58 46 44 51 53 54 52 54 57 57 58 60 61 61 60 57 57 59 61 63 63 61 58 56 58
97 96 95 96 95 92 85 82 83 85 84 81 79 78 78 74 71 77 67 42 51 54 57 56 54 52 54 56 55 56 56 57 57 58 56 56 56 56 57 57 56 56 55 53
92 95 94 94 92 89 86 82 81 80 80 77 73 74 78 77 66 59 70 62 59 60 61 57 54 52 53 55 55 55 55 54 54 53 54 55 54 54 56 57 56 52 53 51
88 89 89 89 87 87 87 87 83 79 79 74 69 66 68 71 76 67 64 63 61 61 58 52 52 53 55 58 58 57 54 54 56 55 52 52 51 51 50 50 52 51 48 45
84 83 81 82 85 85 83 81 82 81 82 79 70 65 65 62 62 61 62 60 58 58 57 53 54 54 55 58 60 59 58 55 56 54 52 53 52 51 49 46 45 46 44 42
80 78 77 75 72 74 78 80 81 78 78 83 78 63 61 61 60 59 60 59 58 57 56 56 59 61 59 58 57 56 56 55 52 50 49 48 47 47 46 47 43 41 41 41